Showing default

MIMIR 1, 68490

Orbit data source: Space-Track

MIMIR 1, 68490 is a payload satellite owned by Space Norway (NO) in SSO that was launched on Mon, 30 Mar 2026 UTC via an FALCON 9 launch vehicle from the Air Force Western Test Range (AFWTR). Payload-class satellites include a variety of spacecraft equipped with specific instruments for various scientific and technological missions. These include communications satellites like Starlink; space stations such as the ISS; scientific satellites like the Hubble; Earth observation satellites from companies like Planet Labs, Umbra, and HawkEye 360; GPS; miniature CubeSats for education and research; and military/defense satellites.

Loading next visibility...
Identifier
68490, 2026-067CC
Orbit
SSO
Country
Flag of NONO / NOR
Related business
Manufacturer
OHB-SE
Mission
Operational spacecraft
Bus & Motor
MIMIR, Unknown motor
Mass
93 kg wet, 93 kg dry
Launch date (UTC)
2026-03-30 (3 months ago)
Launch vehicle
FALCON 9
Launch site
Air Force Western Test Range (AFWTR)
Object type
Payload
Rocket body
Debris
Shape & HBR
Unknown shape, 1.6 m
Radar Cross Section
Large (>1 m²)

Expand to show TLE details & history
Last TLE update: 2 days ago

TLE from 2 days ago
0 MIMIR 1
1 68490U 26067CC  26171.43024082  .00001740  00000-0  18165-3 0  9994
2 68490  97.7613 129.5837 0003313  49.6186 310.5322 14.90995453 12201
Epoch: 2026-06-20T10:19Z
TLE epoch observation values (Epoch: 2026-06-20T10:19:32.806Z)
Latitude
0.00004°
Longitude
66.05202°
Altitude
596.37 km
Speed
7.562 km/s
True Right ascension
08h 38m 20s
True Declination
0° 00' 00"
Sunlit
Object was in daylight at epoch
Visualization orbit readout
Latitude
Unknown
Longitude
Unknown
Altitude
Unknown
Speed
Unknown
Apparent Right ascension
Unknown
Apparent Declination
Unknown
Sunlit
N/A
Visualization observer readout
Local Sidereal Time
10:53:08
Azimuth
Unknown
Elevation
Unknown
Doppler factor
Unknown
Orbital elements
Apogee altitude
594.159 km
Perigee altitude
589.541 km
Semi-major axis
6,969.987 km
Eccentricity
0.00033
Inclination
97.7613°
RAAN
129.5837°
Arg. of periapsis
49.6186°
True anomaly
310.50334°
Mean anomaly
310.5322°
Eccentric anomaly
310.51777°
Mean motion
3.72988 °/min
Orbital period
96.52 mins
BSTAR
0.00018165
Loading maneuver chart data...
Computing Atmospheric mass density...
Loading historical data...
Loading historical data...
Loading historical data...
Loading historical data...
Loading historical data...
Loading historical data...
Loading historical data...

Documentation

Showing up to 5 results
|